Tracking 18980 objects as of 19-Feb-2018
HD Live streaming from Space Station
objects crossing your sky now

FENGYUN 1C DEB

Track FENGYUN 1C DEB now!
10-day predictions


NORAD ID: 30858
Int'l Code: 1999-025AWU
Perigee: 830.5 km
Apogee: 874.4 km
Inclination: 99.1 °
Period: 101.8 minutes
Semi major axis: 7223 km
RCS: 0.0127 m2 (small)
Launch date: May 10, 1999
Source: People's Republic of China (PRC)
Launch site: Taiyaun Space Center, China (TSC)

Note: This is SATELLITE DEBRIS
aabbcc
Your satellite tracking list
Your tracking list is empty




NASA's NSSDC Master Catalog

Two Line Element Set (TLE):
1 30858U 99025AWU 18049.48475281 +.00000136 +00000-0 +95430-4 0  9995
2 30858 099.0782 057.1842 0030385 286.4780 228.6594 14.14132683566097
Source of the keplerian elements: AFSPC